Location: Unspecified
(0.0000°N, 0.0000°E)
Time: 16:07:56
(UTC+00:00)

Vanguard 2 - Pass Details

Date: 13 December 2018
Orbit: 553 x 2939 km, 32.9° (Epoch: 21 March)

Event Time Altitude Azimuth Distance (km) Brightness Sun altitude
Rises 07:42:40 0° 267° (W) 6,748 11.8 24.8°
Reaches altitude 10° 07:48:44 10° 255° (WSW) 5,768 11.6 26.2°
Maximum altitude 08:01:26 24° 209° (SSW) 4,407 11.5 29.0°
Drops below altitude 10° 08:12:14 10° 161° (SSE) 4,808 12.4 31.4°
Sets 08:16:44 0° 146° (SSE) 5,436 12.7 32.4°
